RH
17 16 15 14 13 13 12 12 11 11 12 12 12 12 12 11 10 10 10 9 9 9 9 9 9 9 10 9 10 9 10 10 13 24 29 23 18 22 19 13 12 13 16 16 16 19 21 21 19 19 22 26 29 32 28 29 50 59 53 43 40 48 47 42 30 21 23 21 23 22 19 19 19 20 18 17 18 21 21 19 19 18 17 15 13 13 13 17
19 17 17 15 14 14 13 12 11 13 13 14 15 13 14 14 14 15 14 12 10 10 10 10 10 9 9 9 9 9 10 12 19 28 30 25 22 23 19 13 12 13 16 17 16 19 23 24 21 24 30 30 31 32 32 33 38 54 54 37 48 63 50 39 28 20 22 21 22 24 23 22 20 20 19 17 19 24 22 18 18 18 19 16 14 12 12 19
20 19 17 16 16 14 14 13 12 15 15 16 16 14 15 16 17 17 15 13 12 12 12 11 11 10 10 9 9 9 13 18 24 25 23 22 21 19 15 13 13 13 17 17 17 18 20 22 17 24 30 26 33 36 36 35 31 51 53 38 58 64 45 36 27 20 22 21 23 25 25 25 23 22 20 18 22 24 22 20 18 17 17 16 16 12 12 19
26 24 20 19 17 15 16 16 16 17 18 18 19 19 19 20 19 18 16 15 16 16 16 15 13 12 11 11 10 12 17 23 23 20 17 17 16 15 14 14 13 14 18 19 21 21 19 20 17 25 27 25 40 41 39 39 30 40 44 41 56 48 33 32 27 24 25 23 23 24 26 24 21 22 20 19 23 23 20 20 19 18 16 17 18 15 14 17
41 34 24 24 21 19 21 21 21 21 23 23 23 24 25 24 23 21 20 20 21 21 20 20 17 16 15 14 14 13 19 24 19 14 14 14 13 14 14 14 14 14 18 21 23 22 19 19 20 26 26 25 35 36 38 43 34 33 36 41 50 39 26 27 28 25 24 24 24 25 25 21 21 22 21 21 23 22 18 17 19 19 18 18 18 17 17 17
62 44 28 29 25 25 29 28 27 28 30 29 28 28 28 27 27 25 25 25 24 23 23 23 21 21 18 17 18 17 19 22 17 13 13 13 13 15 14 14 14 14 16 21 22 20 20 20 20 26 28 25 27 27 30 34 30 32 35 37 40 35 27 26 26 23 24 24 23 25 23 22 24 23 24 23 22 21 18 18 19 19 18 18 17 18 21 26
67 44 29 29 27 32 35 32 33 33 33 34 33 32 31 30 28 27 26 25 24 23 23 23 23 22 21 20 23 28 29 22 17 17 15 13 14 16 15 15 14 14 16 21 22 22 24 22 21 27 28 25 26 26 25 25 27 31 35 36 35 32 29 27 25 25 26 23 23 25 22 22 23 23 26 24 20 19 18 19 20 19 18 17 20 25 31 36
53 36 30 27 30 37 37 36 37 38 37 37 36 36 35 33 32 32 30 28 26 26 24 23 23 22 23 23 26 38 40 27 19 20 20 16 16 16 16 16 15 15 18 21 22 23 25 22 22 25 25 25 25 25 23 22 28 35 35 33 30 28 28 27 26 25 24 22 22 23 21 21 21 23 24 21 17 18 19 19 20 20 20 24 31 35 39 42
42 33 32 29 37 41 40 41 41 42 41 40 39 39 40 38 38 38 36 35 34 33 31 28 26 23 22 24 33 43 38 29 25 23 23 18 16 17 17 17 16 17 21 24 23 21 23 24 24 22 23 27 24 23 23 22 27 31 30 28 25 24 25 25 24 22 22 22 19 19 21 20 22 24 22 21 18 18 20 19 20 21 24 32 37 39 40 42
41 38 36 35 43 45 45 45 45 46 45 44 43 42 43 42 43 42 42 42 40 39 36 33 29 24 23 27 40 45 33 30 30 24 21 17 16 16 18 19 18 19 22 25 25 23 23 23 25 24 25 27 22 22 24 22 25 26 25 25 24 25 25 23 22 21 21 21 20 20 21 20 22 23 20 20 19 18 20 20 20 23 32 38 38 40 41 42
49 43 42 44 48 49 48 47 48 48 48 48 47 47 47 47 46 45 46 44 43 41 37 36 30 25 31 35 41 41 31 31 30 23 19 16 16 18 21 24 21 20 23 26 26 25 24 21 23 25 24 23 22 24 24 22 23 23 23 23 24 25 24 22 21 21 20 20 23 23 21 21 21 22 20 17 17 19 19 20 21 26 37 41 40 43 43 44
60 52 48 49 51 51 50 51 53 52 54 55 53 54 52 51 49 47 47 44 43 40 35 36 30 29 35 36 38 34 28 31 28 23 22 21 21 22 25 29 27 25 24 27 29 27 25 22 21 23 23 23 25 24 21 23 23 23 23 23 27 28 24 21 21 22 20 20 24 23 21 24 23 22 20 16 19 21 19 20 22 30 40 41 43 45 45 46
62 55 51 53 53 54 56 58 60 60 61 60 58 57 54 53 50 47 47 44 41 36 33 33 30 31 34 30 30 27 27 32 29 28 30 29 27 26 29 33 32 29 28 28 28 24 24 23 21 24 26 26 28 23 21 24 22 23 24 23 27 32 30 24 22 23 19 22 24 20 25 31 27 21 19 19 20 19 19 22 26 35 41 42 45 46 48 48
60 59 57 57 58 60 64 66 68 67 64 62 59 56 55 53 51 49 46 43 39 34 31 31 30 33 35 31 25 24 29 33 34 36 35 33 30 30 34 36 33 30 30 29 25 23 23 22 20 24 25 26 26 22 27 33 28 25 22 32 36 33 39 32 22 26 21 23 24 18 30 35 25 20 20 21 20 17 20 27 34 39 41 43 46 47 49 49
63 64 64 64 67 70 72 72 72 70 68 65 60 58 58 54 52 50 46 41 36 32 31 31 32 34 35 33 25 25 31 34 36 36 35 34 30 30 34 36 35 30 29 28 26 24 21 20 22 26 26 26 28 30 39 43 45 39 27 49 59 37 42 38 22 27 23 22 22 18 31 33 23 22 20 20 21 19 23 34 40 42 43 45 47 48 49 49
74 72 74 75 77 78 78 77 76 75 72 67 62 61 59 55 54 51 44 39 35 36 37 37 39 37 34 31 26 27 31 33 35 35 36 34 29 30 32 33 33 30 29 28 26 23 20 23 26 30 27 25 36 52 59 51 56 59 38 47 61 41 41 40 26 30 25 21 20 19 29 29 25 25 21 20 21 20 28 40 44 44 46 47 48 49 50 51
92 88 87 82 83 83 81 79 78 76 73 68 62 60 57 56 56 50 40 37 41 47 45 45 45 38 33 30 28 30 30 29 33 37 36 32 32 32 29 31 31 27 26 25 24 23 21 25 27 31 33 33 39 52 59 53 55 65 50 42 52 44 39 39 34 31 22 21 20 19 25 25 23 24 21 20 19 23 35 44 46 47 49 50 50 50 51 52
99 96 90 84 84 84 81 78 78 77 72 67 61 58 58 56 55 50 44 40 43 48 45 44 45 41 37 33 31 32 32 31 36 38 34 33 35 31 26 29 28 24 26 27 25 26 29 36 39 38 37 36 35 38 49 54 52 56 51 45 49 47 40 40 39 30 21 22 24 24 27 27 25 23 21 20 21 30 41 45 46 48 50 51 51 51 52 53
100 99 94 87 83 81 82 82 80 77 71 64 61 61 60 59 55 51 53 55 52 49 47 42 42 45 40 33 33 35 36 36 37 37 34 35 34 30 27 26 30 31 31 32 28 30 38 45 47 42 39 36 33 34 40 44 43 44 45 46 47 47 44 39 36 33 26 24 28 29 30 30 28 26 24 22 26 39 45 46 47 49 50 51 52 53 53 54
100 99 98 94 87 85 89 88 84 82 73 64 64 63 60 64 64 57 60 68 64 53 48 43 39 41 39 34 37 39 38 36 36 37 34 34 34 32 29 27 34 37 35 41 36 33 42 46 44 41 40 38 32 31 31 32 36 37 39 43 45 46 45 37 34 35 28 27 35 34 30 33 30 27 27 23 27 42 48 49 51 52 52 53 54 54 54 55
100 99 100 99 95 94 96 93 90 88 77 70 72 66 60 64 65 60 64 68 61 51 50 46 37 36 35 34 37 36 35 35 38 41 35 33 32 30 31 32 36 38 43 51 43 34 39 46 45 39 37 34 31 32 31 31 33 34 37 41 45 47 44 37 35 37 30 30 42 37 29 34 32 26 32 35 36 44 48 50 53 53 55 56 56 56 55 55
100 100 99 100 100 98 99 97 94 91 82 77 76 65 59 59 55 53 59 65 63 56 56 54 46 46 41 35 36 32 34 40 43 44 37 32 32 30 34 38 40 43 48 48 43 40 44 48 43 36 36 34 34 36 36 37 38 39 43 44 48 51 48 44 44 41 31 30 42 40 31 33 33 31 43 51 50 53 52 52 56 55 56 57 56 57 56 56
100 99 99 101 100 99 100 97 93 90 82 77 72 62 57 57 52 50 55 66 69 61 58 60 56 57 54 44 37 33 39 45 46 47 40 31 35 38 36 38 42 46 47 45 46 50 53 50 39 33 38 38 37 39 39 42 44 46 47 48 52 52 48 49 49 44 34 31 36 35 34 37 32 34 51 56 55 59 58 58 61 60 60 60 60 60 58 58
100 100 100 99 98 99 100 96 91 85 79 75 69 63 60 59 55 50 55 65 69 64 57 55 54 56 55 46 36 36 44 46 45 46 40 32 37 41 39 39 43 47 47 45 46 49 49 45 36 35 43 44 40 42 44 45 50 58 57 51 50 48 46 47 47 46 43 47 44 32 40 53 39 33 48 54 54 57 57 59 62 62 64 63 62 62 62 62
98 100 98 97 98 98 98 95 87 82 80 75 68 64 62 59 52 48 56 67 71 69 57 49 52 50 41 37 36 36 41 43 43 46 40 33 37 40 38 37 42 48 48 44 46 50 47 41 39 39 45 49 45 46 51 51 53 60 61 52 44 42 45 48 46 44 48 58 52 34 46 68 58 44 48 50 54 59 58 61 63 62 63 62 62 62 62 63
95 95 94 97 96 96 100 96 85 82 80 74 68 65 59 57 53 50 62 76 75 69 59 51 52 47 35 36 39 39 47 47 41 44 43 36 35 37 39 41 43 46 47 47 50 54 48 42 42 43 48 54 52 53 57 55 53 55 58 56 49 44 45 50 47 46 56 62 52 39 45 59 55 44 46 50 56 63 63 64 65 63 62 62 64 64 62 63
98 93 91 96 94 95 100 94 86 84 80 76 70 65 60 57 53 48 58 80 80 64 57 52 47 43 37 36 37 43 59 56 40 39 42 38 34 32 40 47 45 42 43 48 56 60 50 42 46 47 49 56 55 54 55 53 54 60 61 59 54 46 45 54 50 49 61 61 60 59 47 48 53 45 42 48 59 66 66 66 65 62 62 62 63 64 64 64
101 96 93 95 90 93 97 91 88 85 79 76 71 67 63 57 54 54 66 86 78 53 47 46 38 37 36 34 38 44 51 48 43 43 38 35 34 34 42 50 52 48 42 46 62 69 54 42 51 52 49 56 55 54 56 49 50 59 61 56 54 49 53 66 61 57 63 55 60 67 48 47 64 60 50 47 55 66 68 68 66 62 62 62 62 64 63 64
101 99 96 93 88 92 97 95 91 85 79 75 72 69 62 56 52 58 79 86 62 41 41 39 32 36 38 35 38 40 38 37 44 46 39 35 34 36 44 49 50 45 41 49 59 63 51 41 54 59 51 55 57 62 65 51 42 53 60 61 66 68 68 74 69 64 69 61 58 62 50 47 59 66 62 49 48 61 67 67 64 62 63 62 63 63 62 64
100 100 98 92 93 97 99 100 93 85 81 76 75 69 60 58 52 62 91 82 51 43 41 35 36 39 39 41 41 37 35 40 46 45 41 41 39 37 40 42 44 47 55 63 59 59 53 42 49 54 50 57 62 65 69 59 47 50 58 62 71 78 77 83 85 72 65 61 59 61 53 46 54 68 68 54 50 57 63 67 65 63 64 62 63 63 62 63
99 100 99 94 98 99 97 100 93 87 85 79 78 71 63 65 64 80 94 66 48 52 41 37 43 38 40 50 49 40 37 43 48 47 45 45 45 45 42 39 47 61 68 65 62 66 57 44 47 49 50 57 53 51 64 73 65 55 57 60 63 74 80 85 88 76 65 63 69 72 60 48 55 64 62 58 59 58 58 63 64 64 64 63 63 63 62 63
97 99 98 95 99 98 96 94 87 88 89 81 81 75 69 76 83 91 81 53 54 60 48 49 49 39 44 50 49 46 44 46 46 49 57 58 56 54 52 51 56 64 67 67 71 70 60 57 57 48 47 49 46 50 60 69 68 57 56 61 64 69 72 75 76 76 75 69 71 74 63 56 57 58 63 65 63 60 56 56 59 61 61 62 63 63 63 64
97 98 97 97 99 99 98 89 82 90 91 82 83 78 77 91 95 84 68 59 62 55 48 55 51 47 48 45 49 51 47 47 45 48 57 60 60 58 57 63 64 57 59 67 68 62 64 72 63 45 44 46 46 48 52 61 62 51 50 59 68 70 72 78 77 76 76 70 69 65 58 64 62 58 73 71 60 62 59 55 58 59 59 61 62 64 64 62
97 99 99 99 98 100 100 92 87 91 91 87 87 85 88 96 88 71 65 65 61 52 49 52 50 49 49 50 58 54 45 48 46 46 53 53 58 64 59 58 58 56 60 64 63 63 67 72 64 51 50 48 41 40 56 72 61 52 60 60 63 71 74 77 73 70 75 72 67 59 58 70 65 60 73 68 58 63 61 59 62 61 62 64 62 63 62 59
100 99 100 100 99 101 99 94 92 92 93 92 91 94 96 90 80 76 73 64 57 55 54 58 57 50 53 62 63 53 45 49 50 50 58 58 63 73 68 56 53 57 63 63 64 65 63 68 69 59 49 46 42 45 62 69 54 58 69 58 57 66 62 64 71 73 76 72 65 63 68 75 69 64 66 59 57 60 59 60 61 60 63 63 60 60 59 60
100 99 100 100 100 99 94 91 93 95 96 94 96 99 90 78 75 76 71 56 54 58 57 66 68 58 63 70 64 55 47 51 55 49 55 62 62 70 71 62 54 49 52 60 67 65 61 69 71 56 45 47 50 50 53 56 54 59 60 56 68 72 57 62 75 73 70 71 70 66 66 69 66 65 63 58 59 59 57 59 57 58 61 58 57 60 60 62
101 99 99 100 98 95 92 92 94 97 98 96 98 95 79 70 68 66 65 56 55 60 60 67 67 61 69 69 66 65 54 53 56 50 61 65 55 59 63 59 54 45 43 51 59 63 65 70 69 55 46 50 57 51 46 53 58 60 60 59 65 67 64 71 78 77 76 80 78 67 62 64 62 64 69 66 63 61 59 59 57 59 60 56 57 61 61 61
100 98 97 97 96 95 95 98 97 97 100 98 97 90 77 71 63 57 62 59 56 61 63 67 64 63 72 70 70 74 62 58 58 58 71 66 53 56 54 50 52 49 46 42 46 58 60 61 66 61 53 56 60 53 49 53 54 60 66 58 56 64 70 73 76 80 80 79 81 73 64 65 62 65 73 70 65 64 62 60 59 59 58 56 57 59 60 59
98 98 97 92 93 98 99 100 98 98 101 99 97 93 82 74 65 62 64 60 61 65 67 72 67 66 75 72 72 75 67 66 66 65 72 65 56 55 50 51 51 52 56 46 46 61 58 55 65 64 56 56 56 55 60 59 51 54 57 53 59 67 69 72 72 79 80 75 78 74 65 70 75 73 69 62 60 61 61 62 60 57 55 54 55 57 57 57
93 96 97 90 91 100 100 99 99 100 100 96 94 91 82 73 70 70 65 59 63 66 70 80 75 70 76 75 75 74 70 73 72 68 71 67 59 55 55 58 48 50 62 55 55 65 56 56 69 67 62 62 60 60 64 60 52 53 54 56 61 60 67 75 68 73 80 76 78 79 71 75 82 75 63 57 56 56 57 60 58 55 54 53 53 54 54 55
90 94 97 93 93 99 100 100 100 97 96 94 90 87 81 75 72 70 64 61 67 70 76 84 80 73 77 78 78 72 70 79 78 70 71 68 60 56 61 63 51 50 58 56 60 64 58 64 74 71 68 70 70 65 59 56 58 62 64 66 67 63 70 77 71 72 74 72 79 80 73 75 76 73 70 65 58 54 54 57 56 55 54 53 52 52 53 55
91 95 98 98 97 98 100 100 96 93 96 95 88 83 79 76 74 71 68 66 70 76 79 82 79 78 79 78 78 73 72 82 83 78 78 73 64 58 61 66 62 59 63 64 66 69 72 78 80 77 75 74 72 68 64 62 61 64 66 67 72 72 70 71 75 78 75 75 80 78 77 77 73 77 80 69 57 53 54 56 55 53 51 50 51 51 55 56
93 97 99 99 99 100 100 99 96 97 98 91 83 78 76 77 77 75 74 71 73 79 81 80 77 76 76 74 74 73 73 80 83 82 84 81 72 67 69 72 70 68 70 72 72 74 79 80 79 81 83 82 76 69 73 73 63 61 67 71 75 76 74 74 78 86 91 85 78 79 81 72 69 82 83 67 57 55 56 55 53 52 50 49 52 54 56 57
96 98 99 99 100 100 99 97 95 98 98 90 86 83 79 79 79 77 77 74 76 82 84 83 78 73 72 72 70 71 73 78 80 79 80 81 76 74 76 76 71 66 67 70 72 73 74 78 87 90 87 87 82 71 76 80 69 68 77 81 80 76 77 81 79 86 97 87 75 82 82 67 70 85 78 65 63 60 58 58 57 57 54 52 55 57 58 60
96 95 95 96 99 100 98 94 91 93 94 92 93 92 86 84 80 75 74 75 78 83 82 81 76 71 72 75 73 73 72 71 75 79 81 82 81 79 78 75 69 67 70 76 76 72 73 80 88 90 89 91 87 81 84 81 71 73 79 78 75 71 71 75 78 86 92 86 81 86 81 70 73 79 71 64 66 63 60 61 64 66 64 61 60 60 62 64
93 95 95 95 98 100 99 96 94 94 92 92 95 92 89 90 87 79 74 74 78 78 76 78 77 75 78 80 80 81 78 74 74 80 86 87 85 85 83 77 72 72 76 78 77 76 82 86 83 80 82 80 75 78 82 78 71 74 76 73 71 70 67 69 80 87 84 80 80 77 73 71 69 70 73 72 68 66 64 62 64 67 67 67 66 66 67 65
91 95 96 95 98 99 99 99 99 97 93 92 91 88 88 90 89 86 80 77 77 75 77 81 80 80 84 85 86 86 82 81 80 82 87 88 85 85 84 79 75 76 75 74 76 80 85 86 82 80 80 74 73 77 76 72 74 75 74 72 70 72 72 71 75 76 72 75 75 62 59 67 61 54 64 71 68 68 68 66 66 64 62 66 69 71 70 63
90 91 90 90 94 98 98 96 98 98 95 93 87 84 88 90 89 92 89 86 84 80 84 91 86 83 83 80 85 89 87 89 89 85 85 86 87 86 83 79 79 81 79 73 75 82 87 85 82 84 85 79 79 81 70 64 70 71 69 68 66 67 70 72 71 66 63 68 64 51 51 60 55 44 50 62 65 64 64 65 64 63 62 66 71 73 69 61
90 91 88 86 90 94 91 85 89 97 96 94 92 87 88 90 88 87 87 94 97 89 88 94 89 84 83 78 82 87 87 90 92 88 84 85 87 89 89 86 82 83 82 76 74 81 85 85 82 82 83 78 79 81 72 66 69 67 64 65 64 65 67 69 68 61 60 64 58 52 56 57 50 47 50 57 61 63 62 61 64 67 69 73 76 75 66 58
89 90 85 85 87 90 90 85 89 97 95 94 97 90 87 88 85 83 84 90 96 93 92 93 87 84 86 84 84 84 79 79 82 83 82 82 84 86 90 91 83 79 80 75 72 75 79 84 79 72 78 81 78 77 73 70 73 70 66 66 65 68 70 70 68 64 69 74 65 62 72 67 54 55 60 61 64 66 64 63 67 75 80 80 80 78 69 58
78 77 76 84 88 86 91 91 90 97 97 96 97 90 86 87 81 79 81 81 84 88 91 91 86 84 88 88 87 84 77 73 74 76 76 77 79 81 85 87 81 80 82 78 75 74 79 86 78 69 82 87 72 68 68 68 74 74 68 65 62 62 62 59 60 63 63 65 62 67 78 71 56 57 63 65 67 65 60 62 69 77 86 87 82 80 75 65
71 71 72 82 87 83 87 91 93 97 94 89 88 85 83 83 78 77 83 86 83 81 83 86 84 87 92 93 88 81 76 76 78 79 77 75 78 82 86 87 81 78 79 78 81 82 78 81 80 77 87 87 72 71 72 73 81 75 59 51 49 49 50 49 54 59 55 56 65 70 67 60 58 63 62 60 66 66 63 65 66 68 78 86 85 83 81 77
Wind_Speed
2 2 2 2 2 2 2 1 1 1 1 1 1 2 2 2 3 3 4 4 5 6 7 8 9 9 10 11 12 13 14 16 15 10 6 5 5 3 3 2 1 6 8 8 9 8 4 2 1 1 2 3 3 2 3 3 2 4 3 3 0 2 3 4 4 3 1 3 5 5 1 3 3 4 3 3 4 5 7 7 4 4 5 8 11 10 10 8
3 2 2 2 2 2 2 1 1 1 1 2 2 2 2 3 3 3 3 4 4 5 6 7 8 8 9 10 11 12 15 16 13 8 5 3 7 5 1 0 2 7 9 9 9 8 6 1 2 3 4 2 2 2 2 2 3 3 3 2 2 5 5 5 5 4 1 2 5 5 2 3 3 2 2 3 5 6 8 11 6 5 8 7 13 12 8 6
3 3 2 2 2 1 1 1 1 2 2 2 2 2 3 3 3 3 3 4 5 6 6 7 7 8 8 9 10 12 14 13 7 4 1 7 10 6 3 2 3 8 8 7 8 7 5 1 4 5 4 2 2 2 2 2 1 2 4 1 5 6 4 5 5 5 5 3 3 5 2 2 4 2 1 2 5 6 6 10 7 9 10 4 7 7 5 5
2 2 2 2 1 1 1 1 1 1 2 2 2 3 4 4 3 3 4 5 6 6 6 7 7 7 7 8 8 10 11 7 1 2 4 9 9 6 5 5 6 9 9 6 6 5 2 1 4 4 4 1 3 3 1 2 1 1 3 4 7 4 2 7 5 4 5 3 3 4 4 7 5 1 0 3 5 8 7 7 7 10 13 9 5 5 5 7
3 2 2 2 2 1 1 1 1 1 1 2 2 3 4 4 4 5 5 5 6 6 6 7 7 7 7 7 7 7 8 4 1 3 6 9 8 5 5 5 7 10 10 7 4 4 3 2 5 4 4 0 2 3 2 3 3 2 3 6 6 3 3 8 5 3 2 0 2 3 4 5 3 2 0 0 4 7 7 7 8 9 10 10 9 7 5 4
3 3 3 3 2 1 1 0 0 0 1 2 3 4 4 5 6 6 6 6 7 7 7 7 7 7 6 5 5 4 3 0 3 3 7 8 7 4 3 4 7 10 11 9 5 4 3 4 5 2 2 1 1 2 4 2 3 2 4 4 5 4 4 6 4 4 3 2 4 2 3 2 4 6 3 4 8 10 9 8 7 9 10 11 10 8 6 7
4 4 4 3 2 1 1 1 0 0 1 2 3 4 5 5 6 7 7 7 7 7 7 7 7 6 5 4 4 3 2 4 6 5 7 8 7 4 2 3 6 10 12 9 5 4 4 5 3 4 4 1 3 4 4 1 2 4 4 5 5 4 6 6 4 6 4 4 7 2 3 3 4 6 3 5 12 12 10 6 6 11 11 8 8 8 9 10
4 3 3 2 2 1 1 1 0 1 1 2 3 5 6 6 7 7 8 8 8 7 7 6 6 5 4 2 0 3 2 6 6 6 8 9 7 4 3 4 6 10 11 9 6 5 4 4 4 4 3 2 3 3 3 2 1 4 5 4 3 3 5 7 6 8 7 7 5 2 5 8 7 3 3 10 15 12 7 5 6 8 8 11 12 11 10 11
3 3 2 2 2 2 2 1 0 0 2 2 4 5 6 7 7 8 8 9 8 8 7 5 5 5 4 1 4 2 4 5 4 5 7 9 7 4 4 5 7 10 9 7 4 5 3 4 4 4 4 3 3 2 1 2 2 5 5 3 3 5 6 6 7 8 7 5 1 3 10 10 5 2 3 13 14 9 5 6 7 6 11 12 10 10 10 10
3 3 3 3 3 2 2 1 0 1 2 3 4 5 6 7 8 9 9 10 9 8 7 5 5 3 4 2 5 1 4 2 2 4 6 7 6 4 5 4 6 10 7 3 3 4 3 4 4 4 5 2 2 2 1 3 3 4 3 4 5 6 7 4 6 9 6 5 3 5 12 9 2 2 3 11 8 2 7 7 7 10 12 10 9 9 11 12
3 4 4 4 4 3 2 1 1 1 3 4 5 6 7 8 9 9 10 10 9 8 7 5 4 3 3 3 5 3 4 2 2 4 5 5 4 4 4 4 5 8 6 2 2 2 2 5 5 5 2 1 1 2 1 2 1 1 1 6 7 6 8 7 7 8 3 4 5 8 7 5 1 2 6 11 5 4 6 5 8 11 9 9 9 8 10 12
4 4 4 4 4 3 2 1 1 2 3 4 6 7 8 9 9 10 10 11 10 8 6 5 5 5 4 2 4 7 6 4 3 4 5 4 4 5 4 3 4 5 5 1 3 2 2 3 5 4 2 2 1 2 1 1 1 1 3 5 9 7 8 11 7 3 2 2 5 8 3 5 1 6 11 10 5 5 5 7 9 10 8 7 8 7 8 10
5 5 5 5 4 4 2 1 1 2 4 5 6 7 8 9 10 11 11 11 9 7 5 5 5 7 4 0 5 10 9 6 5 4 4 3 4 5 4 3 3 2 3 2 3 4 4 2 4 3 2 4 0 2 1 1 2 2 2 1 5 7 6 9 2 1 1 2 5 6 2 6 6 9 12 7 4 6 6 8 8 8 7 6 6 7 7 10
7 6 5 5 4 3 2 1 1 3 4 6 7 8 10 10 11 11 11 10 8 7 5 4 5 6 4 3 5 6 8 8 6 5 4 4 4 5 5 4 3 2 2 3 4 5 4 2 4 3 1 2 1 1 3 5 3 2 1 1 2 2 5 8 3 0 2 1 4 5 2 6 9 9 11 6 2 6 7 7 7 7 6 5 5 6 7 9
8 7 6 5 4 3 2 1 2 4 6 8 8 10 11 11 12 12 10 8 7 4 2 2 6 5 1 5 5 4 6 7 7 7 6 6 5 4 5 5 4 3 3 3 4 4 3 2 3 3 1 2 4 3 3 4 3 2 1 3 3 2 4 11 8 3 3 2 3 5 3 6 8 10 11 4 4 6 7 7 7 7 6 6 5 6 6 7
7 7 6 5 4 2 2 2 3 5 7 9 10 11 11 12 12 10 7 5 3 0 2 3 5 4 1 3 1 1 4 6 6 7 7 6 6 4 5 5 4 4 4 3 4 3 3 3 2 1 0 2 4 4 3 4 4 3 1 3 3 4 2 7 7 1 4 2 2 2 2 4 6 9 11 2 6 6 8 7 6 6 6 6 5 5 6 6
7 7 7 5 4 2 2 1 3 5 7 9 10 10 11 12 10 5 3 1 2 4 4 3 3 1 2 2 0 2 4 6 6 8 8 7 6 6 7 6 4 6 6 5 4 3 3 4 1 0 2 2 3 4 3 2 4 3 1 3 4 4 3 3 6 5 3 4 0 2 2 6 8 9 12 5 6 6 8 7 6 6 5 6 5 6 6 6
7 8 7 6 5 4 2 1 3 5 8 9 10 10 11 9 5 2 1 2 4 4 3 2 3 1 3 2 2 3 3 5 7 9 9 7 7 8 6 4 5 7 6 4 3 3 2 3 2 1 3 2 2 5 3 4 5 4 4 4 4 3 4 5 5 4 3 3 2 4 3 8 10 10 12 7 6 7 7 7 6 6 5 5 5 6 6 7
10 10 8 6 6 4 2 2 3 5 8 8 9 9 7 3 1 1 1 2 3 2 1 2 3 2 3 3 3 2 4 6 7 7 9 8 9 7 5 5 6 6 4 2 1 1 2 3 4 1 2 3 5 6 8 9 8 7 6 3 4 4 5 6 6 5 2 1 4 6 7 8 9 11 11 7 6 8 7 6 6 5 6 5 6 6 6 7
12 11 8 6 5 4 1 2 4 6 8 8 7 5 2 1 2 2 1 2 4 5 2 5 7 3 3 2 3 6 5 5 3 4 8 9 9 7 4 4 5 5 2 4 2 1 3 4 2 5 7 8 10 11 11 8 4 3 3 2 5 5 6 7 7 7 2 2 6 7 6 6 9 11 8 6 4 7 7 7 6 5 5 5 6 6 6 7
13 11 7 5 5 4 2 3 5 6 7 8 6 2 2 3 1 2 2 3 9 10 7 8 9 8 7 3 7 10 6 2 1 1 8 9 8 8 1 2 4 1 2 3 3 1 4 5 7 10 11 11 10 9 7 5 3 2 3 4 5 5 7 7 6 7 1 3 6 4 3 6 10 9 5 6 5 5 4 7 7 6 6 5 6 6 6 5
12 10 8 6 7 6 4 4 5 7 7 7 4 2 2 3 2 1 1 2 8 9 10 9 6 8 9 5 7 8 4 1 1 1 7 7 5 5 2 3 4 3 2 3 4 2 2 4 12 13 8 5 5 4 5 4 4 3 2 2 5 4 4 7 6 6 2 2 4 3 2 7 10 5 6 7 5 5 4 7 6 6 7 5 5 5 5 5
13 11 9 8 8 6 6 5 6 7 7 5 3 3 3 2 2 2 3 0 6 5 6 6 5 6 6 5 8 8 4 4 3 4 8 8 2 4 4 5 5 3 3 5 5 4 3 6 13 11 5 3 6 5 4 2 1 2 2 2 5 3 2 4 5 5 3 1 3 3 3 6 8 2 7 7 5 7 7 9 8 6 6 5 5 5 5 6
17 14 10 9 7 6 6 7 8 7 6 6 4 4 4 4 4 4 2 0 4 4 4 5 4 4 4 3 7 8 4 4 3 4 10 11 4 3 5 6 6 4 4 8 9 7 7 8 6 4 6 6 6 7 4 2 2 4 6 5 5 5 6 6 4 5 4 4 2 2 5 5 7 4 3 5 5 7 7 9 9 7 6 5 6 6 6 5
17 14 12 10 7 6 7 8 8 6 6 5 5 6 6 4 5 5 2 1 3 5 2 3 1 2 3 3 5 7 3 2 1 3 9 11 6 3 3 3 4 5 7 7 7 6 9 6 3 4 5 6 6 7 5 5 3 4 5 9 9 8 7 6 3 4 4 5 3 2 3 5 5 3 3 4 4 6 6 7 7 6 5 5 6 6 5 5
18 15 14 12 9 8 6 4 5 6 5 6 6 6 6 5 5 5 2 3 3 4 1 2 1 2 3 2 2 4 3 2 1 1 5 6 3 3 2 1 1 5 7 4 3 3 6 5 4 6 6 6 6 6 5 7 4 3 4 7 8 6 4 5 2 2 1 4 4 3 0 6 5 2 4 6 5 6 5 6 6 4 4 4 4 4 4 4
21 19 16 13 12 12 7 2 6 7 3 6 8 7 5 5 6 5 1 3 3 3 3 1 0 3 3 1 1 5 3 3 1 3 2 3 1 2 2 2 1 2 3 3 1 3 3 3 4 6 6 6 5 5 5 8 7 4 5 4 5 5 4 3 4 3 2 3 5 4 2 4 5 5 5 8 8 5 5 5 4 3 3 4 4 4 4 4
21 20 17 15 14 16 11 4 5 7 4 5 9 8 5 5 6 3 3 1 3 1 2 0 1 2 1 1 2 4 2 1 4 0 1 3 1 2 1 4 5 4 2 5 3 5 1 2 4 7 6 5 5 5 6 9 5 6 5 5 6 5 4 4 6 2 1 2 5 3 2 2 6 5 1 8 7 4 5 5 4 4 4 4 4 4 3 3
20 19 19 18 16 18 18 12 8 7 6 8 9 7 6 6 5 4 3 2 1 1 1 1 2 1 1 2 3 2 1 1 2 2 1 3 1 3 2 5 5 4 2 3 5 6 1 2 5 7 5 6 5 3 5 8 5 4 4 6 6 5 5 5 5 3 3 2 5 5 4 2 5 6 2 4 5 5 5 5 5 5 4 4 4 4 3 3
23 21 22 20 18 19 20 18 17 11 7 10 9 8 8 5 3 3 3 3 0 1 1 1 2 1 3 4 1 1 1 1 0 1 3 1 2 4 1 2 4 3 2 3 2 5 3 1 2 5 4 5 5 2 1 4 3 4 6 6 6 5 5 4 2 4 3 4 6 8 9 6 4 5 2 2 2 4 7 6 6 6 5 4 4 3 3 3
27 25 26 24 22 23 17 14 22 19 10 10 10 8 6 2 2 3 5 2 1 1 2 1 1 2 5 5 2 2 2 0 0 3 2 1 2 4 1 0 3 3 3 4 3 4 4 1 1 2 3 4 6 4 3 3 3 5 5 4 3 4 4 4 4 4 1 6 6 5 7 6 5 5 2 3 5 2 8 11 11 10 7 6 5 4 3 3
30 28 28 28 27 26 20 15 23 24 15 12 11 6 3 1 2 4 3 1 0 3 4 3 2 4 5 3 2 4 3 1 1 3 3 3 3 3 2 3 3 2 2 4 3 4 3 4 3 2 1 4 6 4 3 5 5 5 4 5 3 2 3 3 3 0 3 7 5 3 5 3 6 4 3 5 6 6 5 10 13 12 10 7 6 5 4 3
31 29 29 30 28 28 28 24 21 23 21 15 9 3 3 3 5 4 4 2 2 2 3 3 3 4 5 3 2 3 2 2 4 3 2 4 3 4 3 3 6 3 1 3 2 1 3 5 1 1 2 2 7 5 2 1 2 4 5 5 4 2 1 3 4 1 3 6 4 3 4 2 5 2 3 5 6 6 0 8 9 9 9 7 6 5 4 4
33 32 32 32 30 29 30 23 16 23 25 15 6 3 3 5 4 6 8 5 2 1 1 3 4 5 5 3 4 4 3 2 4 4 2 3 3 3 4 4 5 3 2 3 2 3 2 5 2 5 2 3 7 6 5 5 4 4 4 5 5 5 4 4 4 3 4 5 4 1 3 3 3 2 3 4 4 4 5 8 7 7 6 5 5 5 4 4
33 34 33 32 30 27 26 19 14 24 25 11 4 5 7 7 3 4 7 5 2 1 1 2 5 5 3 2 3 4 3 3 4 5 3 3 4 4 3 5 7 5 3 3 2 2 3 5 6 2 0 6 7 4 5 7 2 2 3 5 3 4 5 2 3 5 4 2 3 2 2 3 3 2 3 2 3 5 6 6 8 7 5 5 5 5 5 4
28 29 27 27 28 26 26 20 17 23 18 7 5 7 7 5 4 4 4 4 4 4 4 2 3 4 4 2 2 3 1 1 3 4 2 3 3 4 4 4 7 9 6 4 3 2 2 4 5 2 1 5 7 5 4 4 3 2 3 3 4 4 6 2 3 1 3 2 4 2 2 2 1 2 2 2 3 4 4 5 7 6 6 6 6 5 5 5
24 22 17 20 26 28 29 23 22 23 13 4 7 7 4 3 4 5 3 3 3 4 6 3 2 4 4 1 3 4 1 1 3 3 2 3 3 4 5 3 4 10 10 4 2 3 4 3 5 2 3 3 3 4 3 1 4 5 3 5 3 2 4 3 1 2 1 3 4 2 4 4 1 2 1 1 2 4 4 5 6 6 7 7 7 6 5 5
24 17 10 16 27 28 28 26 24 19 7 4 9 7 3 4 4 4 3 3 3 4 5 5 4 3 5 4 3 4 4 3 4 4 2 2 3 4 6 3 1 6 8 4 1 1 4 2 5 2 4 1 2 4 2 3 1 5 3 3 3 2 1 1 2 2 2 4 3 3 6 5 4 4 3 6 9 9 7 7 7 8 8 8 7 6 6 6
20 11 4 13 25 26 27 27 21 12 4 6 10 7 3 4 4 3 5 4 4 3 4 4 2 2 3 5 4 3 4 4 5 4 2 3 3 2 4 3 1 2 4 5 4 2 2 2 3 1 1 1 3 3 3 3 1 2 0 1 1 2 3 2 2 2 3 4 4 5 5 4 5 5 8 11 13 12 11 9 9 10 9 8 7 7 7 7
11 4 1 9 21 27 29 25 13 6 6 6 7 5 3 3 3 3 4 4 3 2 3 4 3 3 3 3 3 2 2 3 5 3 2 3 2 2 1 2 3 2 0 3 4 1 1 2 3 2 2 1 2 3 6 6 3 2 2 2 1 1 1 1 2 2 2 3 4 5 6 5 4 3 7 10 10 12 14 12 10 9 8 8 8 9 9 8
4 2 1 7 19 27 26 16 6 5 7 5 4 4 3 3 3 3 3 2 2 1 2 4 4 4 4 3 3 3 2 2 4 3 2 2 2 2 2 1 4 4 1 3 3 2 2 2 3 1 1 3 4 3 3 6 5 4 4 4 4 3 2 2 4 1 2 3 4 4 7 6 4 1 2 5 7 10 12 11 9 9 10 10 10 11 10 9
3 2 1 8 22 27 17 6 4 4 4 5 3 3 3 3 4 5 3 2 2 1 2 2 4 4 4 4 4 4 3 2 3 3 2 4 4 4 3 2 3 4 3 3 1 1 2 3 2 2 3 5 3 2 1 3 4 4 2 2 3 4 4 4 6 3 1 1 1 2 5 6 3 2 3 4 6 9 10 10 10 10 11 12 12 10 9 8
2 1 1 8 23 23 9 4 6 4 3 3 2 2 3 3 3 4 4 3 3 3 2 2 4 4 4 4 4 5 4 3 4 5 4 4 4 3 2 4 2 3 3 2 1 0 2 3 1 3 3 3 3 4 5 3 4 2 2 1 4 3 3 4 5 3 2 2 1 1 5 5 2 2 2 2 2 6 8 9 10 9 10 10 10 9 8 8
3 2 2 7 20 19 6 4 7 5 3 1 2 2 2 2 4 5 6 6 4 4 4 3 4 4 4 4 5 5 6 4 4 6 5 4 3 1 2 3 4 2 2 2 2 1 0 1 2 1 3 5 4 3 4 4 0 2 2 1 2 3 5 3 1 2 1 3 4 4 7 5 0 3 4 3 3 5 6 7 7 7 8 8 8 8 8 7
3 2 2 3 12 11 4 2 4 5 6 4 3 4 3 1 4 7 7 6 4 4 4 3 4 5 4 4 4 5 7 6 4 3 3 4 3 2 3 2 3 3 2 2 4 4 2 2 3 3 6 8 6 4 2 1 1 1 1 2 2 4 6 3 1 2 2 3 5 5 7 3 2 3 3 2 2 5 6 6 5 6 7 7 7 7 7 6
3 1 1 1 4 5 3 1 1 3 7 7 4 4 6 5 3 5 7 5 4 5 3 2 3 4 3 5 5 6 8 7 5 3 3 4 3 2 2 2 1 3 3 4 4 4 3 2 4 7 9 9 6 5 4 3 3 2 2 4 5 4 5 5 3 3 3 2 3 7 5 2 3 3 4 5 5 5 7 7 7 7 7 8 8 7 6 6
2 2 4 3 2 5 5 3 3 3 4 6 5 4 8 10 4 3 6 6 5 7 4 1 4 5 5 7 6 6 7 7 6 5 4 4 2 1 1 3 3 2 4 4 2 3 4 3 5 7 8 6 3 4 4 3 4 5 4 5 7 5 6 6 4 4 4 2 6 8 4 3 8 9 7 7 7 7 8 8 8 8 8 8 6 5 6 6
1 2 3 2 1 5 7 6 7 6 4 5 5 3 5 10 7 5 5 3 2 6 5 2 5 10 10 9 7 6 6 6 7 7 5 3 3 2 1 2 1 2 4 3 1 3 5 4 4 4 5 5 2 4 4 3 3 4 6 8 10 7 6 7 7 8 7 6 9 9 5 7 10 10 7 7 8 9 9 9 8 7 7 6 5 6 7 7
2 0 1 0 1 3 5 6 8 9 9 7 4 5 7 9 10 7 5 3 1 5 8 7 9 12 12 10 9 8 8 8 8 8 7 4 4 4 2 1 1 2 4 3 0 2 3 3 3 4 4 4 2 4 4 4 3 4 7 10 10 8 6 7 9 11 9 8 11 11 10 11 11 9 7 7 7 8 7 7 5 5 6 6 7 7 7 7
2 0 1 1 1 1 1 3 6 8 10 8 7 9 9 9 11 8 5 6 6 6 9 12 13 11 11 12 11 12 13 12 11 10 9 8 6 5 3 3 2 3 3 2 1 0 1 1 1 3 2 5 1 4 4 3 3 4 9 11 8 4 5 10 11 9 6 8 11 10 10 12 11 7 6 5 3 4 5 6 6 5 5 6 6 7 7 8
3 2 2 2 2 3 2 3 6 7 8 9 9 10 9 11 14 11 4 6 9 7 9 15 15 9 8 11 14 16 15 12 11 10 10 10 8 4 3 4 6 5 3 3 2 0 1 1 1 3 2 5 2 3 4 2 3 5 13 14 9 6 8 10 7 6 8 10 10 8 7 9 9 5 3 3 3 5 6 7 6 4 4 5 6 7 7 8
4 2 2 2 2 3 3 3 5 7 7 9 11 11 11 12 11 9 5 3 3 4 6 12 14 8 7 13 16 14 8 5 6 6 5 5 5 5 3 3 6 7 6 5 2 0 3 3 1 3 3 4 4 2 1 5 5 7 11 10 10 10 11 9 6 8 10 8 6 7 7 7 6 4 4 5 5 6 6 6 5 4 5 6 6 7 7 8
Wind_Direction
278 265 247 249 252 260 264 260 261 285 341 334 328 327 328 336 335 340 333 329 330 329 331 329 333 334 332 335 333 332 329 326 321 304 279 267 219 219 295 309 197 173 169 162 158 155 134 111 159 78 42 37 14 354 344 342 56 50 77 94 262 193 205 188 167 174 169 276 276 306 45 138 286 308 317 345 16 327 304 290 264 281 269 245 261 286 310 294
295 289 276 278 276 285 300 295 324 3 26 7 351 334 339 0 358 355 337 329 330 329 333 331 334 334 333 336 333 334 329 325 318 300 288 218 164 163 217 2 169 169 171 172 174 161 128 149 214 92 49 33 341 357 354 328 68 82 115 105 237 203 215 200 176 195 202 246 256 280 236 177 244 265 336 314 312 332 317 296 296 298 280 262 268 281 301 259
297 300 292 287 284 304 327 330 4 17 16 358 348 344 355 10 5 354 339 336 338 337 338 335 335 334 335 334 336 336 329 328 323 308 348 137 141 144 139 125 161 170 179 181 185 176 138 192 184 124 55 31 309 19 42 333 29 144 119 105 243 217 235 239 199 207 226 214 252 283 279 290 270 218 313 330 311 310 286 279 295 302 295 275 253 270 292 239
291 289 291 292 285 299 329 339 353 14 3 345 352 0 1 359 349 337 337 337 335 332 332 332 331 328 330 332 336 334 335 346 321 254 146 138 137 142 139 141 166 177 186 174 173 195 221 245 168 125 74 34 315 19 134 259 254 169 135 180 232 207 245 261 239 231 230 195 225 278 330 321 293 185 74 10 332 302 275 252 241 269 289 295 273 262 256 240
291 294 299 286 272 289 313 327 343 13 355 342 352 353 351 345 336 331 331 327 321 319 321 319 319 319 321 328 331 333 356 27 251 222 166 149 143 150 144 147 168 183 189 181 177 190 204 147 114 77 62 88 329 34 243 239 138 167 218 208 222 179 230 270 261 269 276 264 282 305 321 299 304 346 204 262 283 272 269 257 238 245 270 287 291 288 280 278
277 287 290 274 267 273 293 304 322 353 341 337 336 332 334 328 325 323 320 316 311 309 308 306 306 308 311 318 319 334 35 55 255 196 177 166 157 163 153 159 176 188 193 196 200 173 152 94 87 101 77 53 202 190 250 254 146 208 274 252 242 206 228 277 294 308 338 335 292 284 289 303 356 320 262 222 245 245 258 267 271 272 272 283 301 325 8 29
260 274 280 271 262 238 248 215 230 318 327 331 328 327 325 321 321 319 315 312 308 306 302 300 298 294 301 306 307 2 93 245 255 209 202 186 180 193 180 199 193 193 193 193 189 156 125 91 111 153 107 16 212 212 242 271 169 204 256 281 262 217 220 256 281 287 286 261 254 238 330 312 294 298 309 268 259 255 268 292 293 284 297 330 8 28 45 49
248 268 280 266 245 234 233 206 168 354 330 330 332 330 326 324 324 320 318 314 310 311 307 300 292 284 292 281 237 11 325 253 254 237 228 202 199 214 213 222 206 199 192 191 181 152 135 130 170 159 119 234 193 210 261 346 11 198 228 276 288 253 242 261 275 276 278 265 254 299 301 269 242 256 313 272 268 272 289 351 319 302 353 41 53 48 49 48
235 244 250 227 211 211 206 193 138 2 337 335 329 329 327 326 325 323 322 318 318 316 312 305 289 272 263 223 96 31 274 244 256 252 223 203 212 226 223 220 208 201 188 193 183 143 148 172 198 183 172 205 179 218 323 35 291 210 207 254 277 282 278 282 282 277 279 269 249 309 284 275 244 190 267 263 262 283 347 4 330 17 51 59 59 48 45 43
217 207 205 198 186 186 183 171 122 356 338 333 328 330 328 328 325 325 324 321 321 316 313 305 283 255 223 174 100 125 259 246 261 237 208 205 214 217 220 215 204 202 186 178 179 159 171 195 192 154 156 152 163 225 93 130 213 211 210 262 261 283 293 273 266 277 287 273 222 232 267 283 275 168 261 268 256 340 23 353 352 56 70 65 60 52 46 43
207 189 185 175 163 166 158 139 41 3 338 333 331 330 328 326 324 325 324 320 319 317 310 294 272 233 189 148 133 203 252 250 240 211 196 197 193 196 204 201 197 204 200 143 138 180 199 201 161 118 149 159 168 291 329 168 172 198 313 312 299 323 313 281 271 278 292 285 209 183 251 296 14 174 233 255 273 40 53 16 26 65 77 66 62 53 47 43
201 185 172 159 153 155 142 116 39 356 335 333 328 327 327 323 324 324 323 321 319 317 304 281 251 207 159 110 193 227 247 242 224 192 179 170 169 188 194 198 194 205 218 154 85 107 132 181 131 114 234 156 127 323 317 197 83 27 47 331 304 353 326 285 285 268 151 269 186 151 289 313 187 218 238 251 301 359 54 57 50 72 75 63 63 55 52 43
186 178 164 159 157 155 143 121 25 338 327 326 322 324 323 321 324 322 323 323 318 315 297 267 237 197 158 225 235 233 243 239 223 206 192 178 178 195 195 193 182 189 218 158 95 85 92 155 125 126 182 117 217 272 116 357 351 325 28 355 301 359 322 281 296 92 136 220 174 144 291 284 249 238 251 267 318 341 21 58 66 80 76 65 64 59 55 43
180 177 169 169 168 164 152 134 327 320 318 317 316 318 318 318 319 319 323 321 317 316 292 248 212 177 157 250 258 253 244 232 229 233 222 206 192 196 198 183 165 155 153 123 101 75 73 112 107 91 103 118 209 300 25 354 357 330 338 6 339 350 281 291 305 320 306 260 148 135 196 260 273 268 266 272 15 13 25 61 77 81 75 68 62 62 56 45
185 183 177 181 176 174 180 242 303 312 312 309 310 314 313 314 316 319 321 319 321 319 284 191 175 154 102 275 272 275 240 222 225 228 219 203 191 196 201 186 171 141 120 116 103 76 73 90 87 88 294 349 52 53 9 345 353 29 335 309 335 194 261 306 297 202 213 279 90 122 200 264 278 280 278 271 84 52 58 77 79 79 75 72 60 60 61 47
189 189 188 186 168 165 208 268 299 305 305 303 305 309 309 312 314 313 315 320 327 63 110 136 161 141 338 270 258 261 221 213 214 211 201 191 190 182 157 151 150 135 126 127 122 103 77 60 56 115 178 12 66 80 39 0 336 353 165 247 271 219 260 314 299 250 175 204 60 135 213 278 278 279 287 328 84 67 85 91 80 82 74 72 65 58 63 49
200 207 200 182 165 170 203 271 307 304 300 298 299 303 307 311 305 298 324 358 130 113 93 114 137 101 287 231 234 267 214 200 196 186 181 180 185 169 138 123 121 120 108 100 111 95 48 39 30 253 42 49 99 99 59 333 297 317 288 227 246 230 232 289 299 326 57 104 43 245 207 259 273 283 290 324 65 68 95 106 94 90 77 72 70 61 59 51
211 220 205 180 178 185 196 286 318 308 297 294 299 304 308 309 286 237 82 121 126 91 60 73 92 49 271 225 208 230 181 181 178 172 175 168 165 158 129 116 121 111 87 56 59 67 24 17 52 7 13 48 130 117 150 228 223 243 249 240 265 256 246 262 273 296 9 47 283 274 264 262 277 283 284 310 62 80 100 115 105 92 80 71 67 64 60 54
217 223 212 188 185 184 197 312 328 312 298 293 300 306 308 319 301 210 151 126 132 119 185 210 160 155 244 241 212 174 136 152 159 170 172 157 159 153 108 105 106 97 95 67 17 89 94 47 55 125 243 205 193 177 195 215 207 222 239 223 246 265 263 256 259 260 247 294 267 258 262 265 280 280 282 316 56 94 107 107 98 89 79 71 66 61 57 56
219 225 217 196 197 193 198 309 318 315 304 298 308 320 310 53 17 311 237 168 209 209 192 201 197 214 268 249 161 147 139 138 142 175 169 160 158 143 91 75 68 56 115 152 186 225 103 106 171 211 211 204 209 208 209 225 224 232 256 251 244 251 269 266 270 276 200 202 259 244 247 265 270 273 289 323 19 90 113 107 94 89 80 73 72 64 56 55
219 225 219 217 242 241 242 285 299 309 305 300 309 330 180 170 132 275 254 260 247 234 241 229 209 237 255 205 161 156 143 103 18 132 160 162 149 142 127 59 85 41 231 154 135 33 91 139 217 223 210 208 218 216 213 242 256 238 237 260 266 247 261 269 269 285 244 188 270 270 260 271 263 271 329 357 23 57 100 113 104 98 90 75 72 64 54 52
219 221 219 234 255 259 275 288 289 295 294 292 284 235 203 181 167 207 172 286 273 242 238 243 227 250 250 224 206 177 142 192 318 281 171 154 140 167 180 100 136 196 199 123 95 73 110 198 237 232 212 223 260 231 188 215 222 214 208 236 259 253 278 285 280 303 355 177 272 324 307 273 272 290 28 27 47 50 53 89 92 92 91 75 68 62 51 50
217 218 225 238 246 263 291 296 287 284 274 261 244 213 206 202 183 163 130 174 291 259 227 231 215 238 243 237 220 185 184 212 199 243 186 152 146 189 156 142 175 178 153 173 161 150 178 234 242 230 181 200 262 259 203 203 235 206 212 224 251 265 298 278 284 316 348 222 264 327 318 284 278 301 59 37 54 68 56 68 66 62 75 68 65 58 47 51
217 213 222 233 236 257 282 294 288 273 248 231 229 214 194 197 177 156 132 77 289 277 235 214 193 212 224 213 189 172 196 208 162 215 184 161 151 156 166 172 172 174 193 198 182 179 218 238 238 187 153 173 227 267 247 219 283 244 221 217 238 247 224 232 281 325 333 339 341 334 324 299 267 257 84 56 60 71 62 70 67 54 59 60 63 58 46 48
215 208 216 225 227 244 261 286 279 235 210 211 219 212 182 176 174 163 128 43 293 293 266 205 175 202 197 145 168 168 163 188 184 215 181 170 156 136 192 173 151 204 217 193 178 211 242 237 126 138 168 163 191 253 237 186 232 283 235 213 221 231 230 241 311 8 5 334 328 8 325 295 285 283 151 137 87 70 60 67 72 59 53 55 60 59 48 46
212 205 214 218 215 229 239 269 240 187 192 222 212 200 181 170 174 173 114 51 290 275 215 180 174 180 176 121 161 133 108 236 283 89 154 170 170 127 178 184 128 213 204 172 166 220 248 231 174 176 177 152 175 241 229 164 158 275 248 208 210 214 229 248 229 88 105 259 295 48 283 274 298 296 189 159 116 92 79 65 72 65 56 64 65 62 53 46
212 205 211 213 211 219 214 204 199 177 185 230 202 192 188 170 173 185 104 24 288 229 141 183 140 145 172 206 167 126 140 236 101 69 101 132 193 78 142 220 179 199 185 123 159 237 220 219 212 195 174 157 183 242 220 159 139 237 240 162 153 169 193 212 154 147 209 250 319 18 107 267 281 263 198 144 120 103 99 85 84 88 81 84 78 70 65 53
211 203 207 212 216 221 220 218 198 191 209 200 183 187 180 165 175 151 78 338 280 173 115 253 102 101 143 32 57 115 182 199 112 206 348 95 108 63 123 220 175 187 203 129 198 257 185 157 215 192 175 188 207 232 196 158 154 240 215 133 113 130 144 113 105 119 349 2 306 293 125 266 270 274 184 133 140 154 152 145 138 137 131 117 104 93 80 68
214 204 206 212 221 228 228 233 220 210 211 174 164 174 160 165 174 87 79 215 270 85 89 73 114 64 26 49 37 76 69 20 130 226 3 86 86 74 162 211 159 183 269 134 199 257 265 198 193 156 160 205 206 232 187 164 185 219 147 96 64 70 81 75 93 96 35 345 251 210 168 225 267 286 293 148 171 189 171 164 162 159 157 143 127 119 103 80
223 214 208 209 220 223 219 225 226 218 195 171 158 151 147 150 124 101 213 223 79 120 125 106 167 129 91 101 357 321 105 25 101 56 35 58 18 34 131 188 101 135 308 5 235 256 298 304 162 145 174 191 157 109 160 165 158 128 94 56 32 29 41 48 57 77 56 285 248 203 188 192 255 284 248 175 231 188 161 159 173 170 159 156 148 135 123 103
224 221 215 214 224 220 204 213 222 214 193 172 159 147 144 98 82 175 218 215 61 203 143 141 185 134 134 142 175 188 126 74 37 86 83 89 34 33 55 104 64 67 346 324 295 304 329 338 240 232 180 135 109 85 25 14 67 96 85 65 47 345 9 24 358 47 120 256 259 217 185 175 229 266 276 300 315 238 173 169 172 168 160 162 159 151 149 138
223 224 221 221 227 222 209 215 219 211 196 170 158 151 135 119 209 206 214 81 128 205 169 174 183 166 173 157 168 178 150 177 185 126 134 140 154 176 177 179 156 72 327 254 267 339 309 235 252 292 207 136 115 95 13 4 38 82 100 94 84 322 348 358 307 283 215 252 257 182 146 173 236 252 319 316 323 304 217 169 162 160 157 159 158 161 160 146
224 223 223 225 228 222 214 219 220 205 189 171 159 133 108 194 216 184 176 197 205 189 145 142 151 151 148 132 214 192 143 189 185 164 156 129 152 219 249 207 163 132 233 208 211 349 299 291 299 140 265 178 143 150 195 242 131 138 146 134 127 145 192 252 260 265 257 268 277 160 140 243 266 291 338 313 316 314 217 132 141 146 146 153 156 159 155 142
227 226 227 228 227 220 210 211 210 190 180 168 154 132 155 213 209 156 185 214 202 154 123 127 127 122 134 167 222 179 142 226 181 150 137 119 138 228 256 230 182 152 131 145 182 178 199 300 235 176 227 185 171 182 165 142 154 175 156 138 150 160 172 208 218 210 239 275 301 231 160 199 230 278 315 304 328 2 73 103 112 118 129 140 137 144 149 146
229 227 226 219 212 208 201 199 194 180 174 161 149 177 192 205 175 153 195 208 187 159 94 82 107 125 183 245 246 187 168 226 172 138 146 157 173 194 204 211 187 163 141 155 220 178 167 257 254 244 187 159 177 195 133 114 125 212 130 116 167 185 167 191 214 182 183 282 289 222 209 206 196 274 315 346 31 50 73 98 111 116 127 133 140 160 167 168
219 214 213 203 195 196 194 191 180 176 175 159 171 199 206 196 167 176 187 171 180 156 123 68 83 145 217 286 263 222 180 170 152 145 192 195 201 208 210 224 186 174 171 165 203 185 150 264 277 345 38 177 186 187 144 140 184 168 130 175 214 179 134 123 273 185 107 248 255 209 240 285 304 274 295 38 57 77 91 113 127 138 150 155 172 184 183 186
195 193 198 195 194 194 192 187 173 171 179 184 200 208 200 189 183 179 168 144 153 126 133 174 184 177 201 210 227 220 165 133 155 154 212 217 222 208 209 245 186 186 193 172 204 199 150 261 272 174 174 224 196 146 77 45 146 131 170 212 203 122 94 102 227 321 35 235 264 259 236 247 246 245 264 98 162 166 170 160 150 163 175 180 191 192 194 195
179 178 194 205 201 193 187 183 170 165 172 208 217 223 191 200 206 169 159 138 117 105 144 192 204 181 182 183 212 203 164 173 175 168 189 215 234 193 179 202 177 201 208 164 149 225 132 247 276 199 171 244 33 93 61 341 95 131 193 206 123 136 244 110 167 220 235 235 270 271 243 234 211 204 192 199 200 190 185 179 176 188 192 193 197 200 203 197
169 167 209 209 201 192 182 177 166 159 189 207 212 225 190 200 230 188 164 141 111 124 169 199 189 145 166 175 184 184 170 176 174 171 170 189 231 201 154 179 173 229 218 156 165 230 115 196 272 310 201 164 53 92 177 242 348 80 168 305 74 174 184 160 176 181 207 234 254 252 241 246 240 201 183 199 197 181 180 187 193 197 196 196 195 197 202 198
151 151 254 195 193 190 179 170 160 172 211 205 203 207 173 186 229 214 178 151 124 153 183 192 166 149 173 183 181 175 172 177 168 172 196 188 228 251 172 158 153 171 20 117 147 165 97 190 233 315 332 136 159 203 188 185 177 131 171 211 238 217 156 246 225 132 158 215 240 254 250 252 262 192 181 204 195 177 182 187 191 197 198 202 204 201 203 199
119 145 208 179 184 184 174 166 174 195 202 209 193 174 171 181 182 195 201 158 120 108 136 159 172 167 166 176 189 173 157 189 177 177 224 218 243 248 214 151 150 163 112 89 127 175 157 178 198 218 239 193 219 242 180 173 169 155 175 190 189 174 139 255 254 186 159 202 196 231 257 261 260 211 205 222 189 179 187 182 182 195 198 205 213 208 204 202
86 131 179 179 180 178 170 174 196 180 201 219 189 145 161 167 156 175 188 128 113 115 91 143 179 170 163 178 185 169 159 187 189 185 223 228 224 226 208 174 143 136 123 117 172 209 116 120 178 227 223 212 233 347 56 166 144 127 175 178 155 151 139 188 235 232 208 246 163 197 257 264 255 254 274 252 189 175 181 177 178 194 202 209 214 210 208 210
104 120 82 181 181 178 178 213 190 173 220 216 139 121 153 150 155 171 173 163 158 153 144 180 186 186 198 186 173 176 176 187 199 200 218 227 220 235 220 196 165 94 99 133 209 19 69 95 182 273 300 307 322 357 9 23 90 104 275 156 138 168 153 170 209 184 170 250 219 227 255 251 258 307 314 322 152 162 178 184 186 195 208 213 212 210 213 214
126 117 37 187 187 186 198 221 195 193 207 152 114 171 156 140 172 174 179 186 177 151 161 188 188 195 204 174 165 183 181 189 223 212 204 206 214 310 327 226 200 136 133 191 183 177 187 132 128 206 289 307 316 333 352 347 66 163 247 222 142 127 108 103 174 123 163 224 187 217 251 239 353 346 348 35 115 175 201 200 196 204 214 220 217 215 216 211
115 101 17 198 197 201 222 222 197 205 200 187 186 177 162 190 193 185 183 183 175 156 163 188 177 173 178 161 168 194 192 197 224 220 187 196 231 335 350 280 203 173 202 199 151 143 173 180 148 175 228 244 243 229 235 263 223 174 215 211 190 140 132 134 141 152 209 203 169 215 247 250 17 355 321 313 208 217 236 230 228 235 228 226 225 222 217 207
122 130 140 172 217 226 244 184 151 215 206 200 208 192 192 207 204 184 184 188 193 181 172 170 155 150 165 167 173 206 216 212 210 195 174 189 227 289 355 10 122 156 155 132 125 110 110 200 205 200 223 233 219 211 207 153 155 209 232 208 205 185 147 130 120 162 196 196 217 232 227 247 294 255 228 244 238 231 240 236 235 240 234 231 230 227 221 213
126 156 169 161 191 216 229 213 186 206 198 190 200 202 200 205 204 177 193 202 196 185 189 182 161 176 186 176 183 210 217 213 207 196 182 175 199 283 18 59 78 107 122 119 103 87 108 222 232 209 230 241 164 167 190 150 167 204 225 237 231 199 143 141 181 198 152 154 249 245 193 191 254 249 220 215 225 233 237 234 233 234 232 227 218 212 212 210
141 155 187 162 150 203 213 207 198 202 197 191 202 218 207 206 203 195 195 189 161 183 199 215 200 206 196 176 182 204 202 207 214 205 192 166 153 148 35 36 57 56 78 84 26 90 126 232 234 182 234 258 133 146 173 156 178 208 217 239 247 231 172 164 211 217 179 196 247 252 216 209 240 254 236 206 208 220 230 233 229 230 231 216 194 198 205 200
118 88 249 319 30 211 208 196 190 204 213 207 212 231 221 211 209 205 175 123 132 199 198 207 216 214 204 188 186 199 200 201 212 208 190 172 168 160 145 252 263 62 82 99 53 101 129 237 213 163 225 262 178 171 188 174 195 231 233 234 240 240 210 197 226 232 213 220 245 254 255 251 250 247 240 231 218 212 226 238 225 215 219 205 194 202 204 197
138 162 192 102 320 255 218 181 177 202 217 211 215 226 222 218 218 213 176 167 199 202 192 210 219 209 202 199 198 210 212 202 206 205 180 171 187 182 176 195 164 93 94 136 198 288 124 206 179 145 222 282 261 175 196 181 177 234 257 250 233 208 220 231 238 241 233 237 244 247 257 265 264 243 229 250 236 179 198 224 222 215 205 186 191 205 202 199
107 62 92 140 205 189 168 180 179 196 213 210 217 221 214 220 220 216 214 208 209 202 189 206 217 207 195 205 211 221 220 201 198 200 178 173 185 179 182 186 155 142 158 164 171 245 148 189 23 85 183 274 303 182 216 25 41 282 270 260 240 211 229 241 234 218 223 236 245 247 246 256 265 265 252 247 203 185 202 209 212 223 204 179 191 203 202 205
113 55 67 114 207 197 173 183 186 197 211 210 215 216 214 223 216 200 214 239 203 208 203 203 208 201 194 210 218 222 211 166 164 172 150 130 114 99 108 140 142 150 161 160 156 138 143 155 127 118 172 269 300 209 182 41 18 283 263 246 232 233 241 249 248 234 226 215 219 234 235 239 249 265 271 256 231 224 224 207 197 213 212 206 208 204 204 212